Weather History for Mobile, AL

Change the Weather History Date:

Thursday, December 26, 2013

  Actual Average Record
Temperature  
Mean Temperature 45 °F 51 °F  
Max Temperature 54 °F 61 °F 78 °F (1964)
Min Temperature 35 °F 41 °F 14 °F (1983)
Degree Days  
Heating Degree Days 20 15  
Month to date heating degree days 307 330  
Since 1 July heating degree days 591 588  
Cooling Degree Days 0 0  
Month to date cooling degree days 27 8  
Year to date cooling degree days 2522 2511  
Moisture  
Dew Point 31 °F    
Average Humidity 59    
Maximum Humidity 76    
Minimum Humidity 41    
Precipitation  
Precipitation 0.00 in 0.17 in 2.14 in (1939)
Month to date precipitation 4.57 4.22  
Year to date precipitation 66.48 65.31  
Snow  
Snow 0.00 in 0.00 in 0.00 in (2001)
Month to date snowfall 0.0 0.0  
Since 1 July snowfall 0.0 0.0  
Snow Depth 0.00 in    
Sea Level Pressure  
Sea Level Pressure 30.32 in    
Wind  
Wind Speed 7 mph (North)    
Max Wind Speed 15 mph    
Max Gust Speed 21 mph    
Visibility 10 miles    
Events      
T = Trace of Precipitation, MM = Missing Value Source: NWS Daily Summary

Daily Weather History Graph

Daily Weather History Graph

Search for Another Location

Airport:

Trip Planner

Search our weather history database for the weather conditions in past years. The results will help you decide how hot, cold, wet, or windy it might be!

Date:

Astronomy

Dec. 26, 2013 Rise Set
Actual Time 6:48 AM CST 4:58 PM CST
Civil Twilight 6:22 AM CST 5:25 PM CST
Nautical Twilight 5:51 AM CST 5:55 PM CST
Astronomical Twilight 5:22 AM CST 6:25 PM CST
Moon 12:34 AM CST (12/26) 12:18 PM CST (12/26)
Length of Visible Light 11h 03m
Length of Day
10h 10m
Last Quarter, 38% of the Moon is Illuminated
Dec 26
Last Quarter
Jan 1
New
Jan 7
First Quarter
Jan 15
Full
Jan 23
Last Quarter

Hourly Weather History & Observations

Time (CST) Temp. Windchill Dew Point Humidity Pressure Visibility Wind Dir Wind Speed Gust Speed Precip Events Conditions
12:56 AM 39.9 °F 35.1 °F 28.0 °F 63% 30.32 in 10.0 mi North 6.9 mph - N/A   Clear
1:56 AM 39.0 °F 32.8 °F 28.0 °F 65% 30.32 in 10.0 mi North 9.2 mph - N/A   Clear
2:56 AM 39.9 °F 33.4 °F 28.0 °F 63% 30.31 in 10.0 mi North 10.4 mph - N/A   Clear
3:56 AM 39.0 °F 34.0 °F 28.0 °F 65% 30.31 in 10.0 mi NNE 6.9 mph - N/A   Clear
4:56 AM 36.0 °F - 28.0 °F 73% 30.32 in 10.0 mi Calm Calm - N/A   Clear
5:56 AM 37.0 °F 31.0 °F 28.9 °F 73% 30.32 in 10.0 mi North 8.1 mph - N/A   Scattered Clouds
6:56 AM 37.0 °F 33.3 °F 28.9 °F 73% 30.34 in 10.0 mi North 4.6 mph - N/A   Mostly Cloudy
7:56 AM 39.9 °F 35.8 °F 30.9 °F 70% 30.35 in 10.0 mi North 5.8 mph - N/A   Mostly Cloudy
8:56 AM 42.1 °F 37.1 °F 30.9 °F 65% 30.37 in 10.0 mi North 8.1 mph - N/A   Overcast
9:56 AM 44.1 °F 39.0 °F 30.9 °F 60% 30.37 in 10.0 mi North 9.2 mph - N/A   Overcast
10:56 AM 46.9 °F - 32.0 °F 56% 30.35 in 10.0 mi North 11.5 mph - N/A   Mostly Cloudy
11:56 AM 50.0 °F - 32.0 °F 50% 30.33 in 10.0 mi NNE 11.5 mph - N/A   Mostly Cloudy
12:56 PM 52.0 °F - 30.9 °F 45% 30.30 in 10.0 mi North 10.4 mph - N/A   Mostly Cloudy
1:56 PM 53.1 °F - 30.9 °F 43% 30.28 in 10.0 mi North 11.5 mph - N/A   Mostly Cloudy
2:56 PM 52.0 °F - 30.9 °F 45% 30.28 in 10.0 mi North 9.2 mph - N/A   Mostly Cloudy
3:56 PM 51.1 °F - 32.0 °F 48% 30.29 in 10.0 mi North 6.9 mph - N/A   Mostly Cloudy
4:56 PM 48.0 °F - 35.1 °F 61% 30.30 in 10.0 mi North 3.5 mph - N/A   Mostly Cloudy
5:56 PM 44.1 °F 42.5 °F 37.0 °F 76% 30.30 in 10.0 mi NNE 3.5 mph - N/A   Mostly Cloudy
6:56 PM 44.1 °F 40.8 °F 36.0 °F 73% 30.31 in 10.0 mi North 5.8 mph - N/A   Mostly Cloudy
7:56 PM 44.1 °F 41.5 °F 35.1 °F 71% 30.33 in 10.0 mi North 4.6 mph - N/A   Mostly Cloudy
8:56 PM 45.0 °F 41.8 °F 33.1 °F 63% 30.32 in 10.0 mi North 5.8 mph - N/A   Mostly Cloudy
9:56 PM 44.1 °F 40.8 °F 32.0 °F 63% 30.34 in 10.0 mi North 5.8 mph - N/A   Mostly Cloudy
10:56 PM 44.1 °F 40.8 °F 32.0 °F 63% 30.33 in 10.0 mi North 5.8 mph - N/A   Mostly Cloudy
11:56 PM 44.1 °F 38.6 °F 30.9 °F 60% 30.32 in 10.0 mi North 10.4 mph - N/A   Clear